Voltar ao catálogo

STARLINK-11463

AtivoComunicaçõesVLEO
NORAD 62066·PAYLOAD·🇺🇸 United States

Lançado Nov 24, 2024 de Vandenberg Space Force Base

Loading…

Próximas Passagens (próximas 24 horas)

TLE

AtualizadoSource: CelesTrak SupGP

Época: Sep 15, 2026, 02:55 UTC

1 62066C 24217K   26258.12201389 -.00091971  00000+0 -75736-3 0  2582
2 62066  53.1573 217.3883 0001188  82.2904  22.8081 15.69762805    12

Acompanhe STARLINK-11463 em tempo real com AllMySat

Download on the App Store